Torna al catalogo

ARIANE 2 DEB

LostGTO
NORAD 33548·DEBRIS·🇫🇷 France

Lanciato Jan 27, 1989 da Guiana Space Centre

Loading…

TLE

ObsoletoSource: Space-Track

Epoca: Mar 31, 2026, 22:58 UTC

1 33548U 89006AQ  26090.95758424 -.00000247  00000-0  00000-0 0  9991
2 33548  10.1113  13.8563 6924200 197.3047 115.4206  2.22279927166275

Traccia ARIANE 2 DEB in tempo reale con AllMySat

Download on the App Store